Linden, NJ

7:00 PM EST on February 08, 2016 (GMT -0500)
Linden

Weather History for KLDJ - March, 2014

Change the Weather History Date:

Monday, March 31, 2014

  Actual Average (KEWR) Record (KEWR)
Temperature  
Mean Temperature 46 °F 47 °F  
Max Temperature 56 °F 56 °F 85 °F (1998)
Min Temperature 37 °F 38 °F 22 °F (1964)
Degree Days  
Heating Degree Days 18 18  
Month to date heating degree days 709  
Since 1 July heating degree days 4344  
Cooling Degree Days 0 0  
Month to date cooling degree days 1  
Year to date cooling degree days 1  
Moisture  
Dew Point 34 °F    
Average Humidity 65    
Maximum Humidity 90    
Minimum Humidity 40    
Precipitation  
Precipitation 0.05 in 0.14 in 2.50 in (1934)
Month to date precipitation 4.18  
Year to date precipitation 10.60  
Snow  
Snow 0.00 in 0.10 in 1.40 in (1980)
Month to date snowfall 4.6  
Since 1 July snowfall 27.6  
Snow Depth -    
Sea Level Pressure  
Sea Level Pressure 29.91 in    
Wind  
Wind Speed 11 mph (North)    
Max Wind Speed 18 mph    
Max Gust Speed 28 mph    
Visibility 9 miles    
Events Rain    
T = Trace of Precipitation, MM = Missing Value Source: NWS Daily Summary

Daily Weather History Graph

Daily Weather History Graph

Search for Another Location

Airport or City:

Trip Planner

Search our weather history database for the weather conditions in past years. The results will help you decide how hot, cold, wet, or windy it might be!

Date:

Astronomy

Mar. 31, 2014 Rise Set
Actual Time 6:42 AM EDT 7:20 PM EDT
Civil Twilight 6:14 AM EDT 7:48 PM EDT
Nautical Twilight 5:42 AM EDT 8:20 PM EDT
Astronomical Twilight 5:08 AM EDT 8:54 PM EDT
Moon 7:03 AM EDT (3/31) 8:37 PM EDT (3/31)
Length of Visible Light 13h 33m
Length of Day
12h 38m
New Moon, 1% of the Moon is Illuminated
Mar 31
New Moon
Apr 7
First Quarter
Apr 15
Full
Apr 22
Last Quarter
Apr 29
New

Hourly Weather History & Observations

Time (EDT) Temp. Windchill Dew Point Humidity Pressure Visibility Wind Dir Wind Speed Gust Speed Precip Events Conditions
12:15 AM 42.4 °F 35.0 °F 38.8 °F 87% 29.70 in 7.0 mi NNE 15.0 mph 20.7 mph N/A   Light Drizzle
12:35 AM 43.0 °F 36.8 °F 38.1 °F 83% 29.70 in 10.0 mi North 11.5 mph 20.7 mph N/A   Overcast
12:55 AM 42.8 °F 36.2 °F 37.6 °F 82% 29.71 in 10.0 mi North 12.7 mph 23.0 mph N/A   Overcast
1:15 AM 42.8 °F 35.1 °F 37.6 °F 82% 29.72 in 10.0 mi NNE 16.1 mph 20.7 mph N/A   Overcast
1:35 AM 42.8 °F 36.6 °F 37.2 °F 81% 29.73 in 10.0 mi NNE 11.5 mph 20.7 mph N/A   Overcast
1:55 AM 42.1 °F 35.7 °F 37.4 °F 83% 29.74 in 7.0 mi North 11.5 mph 17.3 mph N/A Rain Light Rain
2:15 AM 41.5 °F 34.2 °F 37.6 °F 86% 29.76 in 5.0 mi North 13.8 mph 18.4 mph 0.01 in   Light Drizzle
2:35 AM 41.2 °F 35.0 °F 37.6 °F 87% 29.76 in 5.0 mi NNE 10.4 mph 17.3 mph 0.01 in   Drizzle
2:55 AM 41.0 °F 34.7 °F 37.6 °F 88% 29.76 in 5.0 mi North 10.4 mph - 0.01 in Rain Rain
3:15 AM 41.0 °F 35.2 °F 37.8 °F 88% 29.77 in 5.0 mi NNE 9.2 mph - N/A   Drizzle
3:35 AM 40.6 °F 36.0 °F 37.8 °F 89% 29.77 in 4.0 mi North 6.9 mph - 0.01 in   Drizzle
3:55 AM 40.5 °F 36.5 °F 37.8 °F 90% 29.77 in 5.0 mi North 5.8 mph - 0.01 in   Light Drizzle
4:15 AM 40.6 °F 34.3 °F 37.6 °F 89% 29.77 in 10.0 mi North 10.4 mph - N/A   Overcast
4:35 AM 40.8 °F 36.2 °F 37.0 °F 86% 29.78 in 7.0 mi NNW 6.9 mph - N/A Rain Rain
4:55 AM 40.3 °F 34.9 °F 37.4 °F 89% 29.78 in 7.0 mi NNW 8.1 mph - N/A Rain Light Rain
5:15 AM 40.1 °F 35.3 °F 36.9 °F 88% 29.79 in 10.0 mi NNW 6.9 mph - N/A   Light Drizzle
5:35 AM 40.1 °F 33.6 °F 35.8 °F 85% 29.81 in 10.0 mi NNW 10.4 mph - N/A   Overcast
5:55 AM 40.3 °F 35.5 °F 35.1 °F 82% 29.82 in 10.0 mi North 6.9 mph 17.3 mph N/A   Overcast
6:15 AM 40.3 °F 34.9 °F 34.7 °F 80% 29.82 in 10.0 mi North 8.1 mph - N/A   Overcast
6:35 AM 40.1 °F 33.2 °F 34.2 °F 79% 29.83 in 10.0 mi NNW 11.5 mph 16.1 mph N/A Rain Light Rain
6:55 AM 39.4 °F 33.2 °F 34.0 °F 81% 29.85 in 7.0 mi NNW 9.2 mph - 0.01 in Rain Light Rain
7:15 AM 38.8 °F 32.1 °F 34.5 °F 84% 29.86 in 5.0 mi North 10.4 mph - 0.01 in Rain Light Rain
7:35 AM 37.9 °F 32.1 °F 34.7 °F 88% 29.87 in 7.0 mi NNW 8.1 mph - 0.01 in Rain Light Rain
7:55 AM 38.3 °F 32.5 °F 34.7 °F 87% 29.88 in 7.0 mi NNW 8.1 mph - 0.02 in Rain Light Rain
8:15 AM 38.5 °F 32.7 °F 34.2 °F 84% 29.89 in 7.0 mi NNW 8.1 mph - N/A Rain Light Rain
8:35 AM 39.2 °F 33.0 °F 33.8 °F 81% 29.89 in 10.0 mi NNW 9.2 mph - N/A   Overcast
8:55 AM 39.4 °F 33.8 °F 33.6 °F 80% 29.89 in 7.0 mi NNW 8.1 mph - N/A   Overcast
9:15 AM 39.6 °F 33.0 °F 33.3 °F 78% 29.91 in 10.0 mi NNW 10.4 mph - N/A   Overcast
9:35 AM 39.9 °F 33.9 °F 33.1 °F 77% 29.92 in 10.0 mi NNW 9.2 mph 16.1 mph N/A   Overcast
9:55 AM 40.1 °F 33.6 °F 33.1 °F 76% 29.93 in 10.0 mi North 10.4 mph - N/A   Overcast
10:15 AM 40.5 °F 35.8 °F 32.5 °F 73% 29.94 in 10.0 mi North 6.9 mph - N/A   Overcast
10:35 AM 41.2 °F 34.5 °F 32.4 °F 71% 29.94 in 10.0 mi North 11.5 mph 18.4 mph N/A   Overcast
10:55 AM 41.9 °F 35.9 °F 32.4 °F 69% 29.94 in 10.0 mi North 10.4 mph - N/A   Overcast
11:15 AM 43.0 °F 37.2 °F 33.1 °F 68% 29.94 in 10.0 mi North 10.4 mph - N/A   Overcast
11:35 AM 43.5 °F 37.1 °F 32.4 °F 65% 29.94 in 10.0 mi North 12.7 mph 17.3 mph N/A   Overcast
11:55 AM 44.6 °F 39.7 °F 32.9 °F 64% 29.95 in 10.0 mi North 9.2 mph - N/A   Overcast
12:15 PM 46.2 °F 40.5 °F 33.4 °F 61% 29.94 in 10.0 mi NNE 12.7 mph - N/A   Overcast
12:35 PM 47.5 °F - 33.3 °F 58% 29.94 in 10.0 mi North 12.7 mph 18.4 mph N/A   Overcast
12:55 PM 49.8 °F - 34.3 °F 55% 29.93 in 10.0 mi North 11.5 mph 19.6 mph N/A   Scattered Clouds
1:15 PM 51.6 °F - 35.1 °F 53% 29.93 in 10.0 mi NNW 10.4 mph 17.3 mph N/A   Clear
1:35 PM 52.3 °F - 35.6 °F 53% 29.93 in 10.0 mi NNW 15.0 mph 19.6 mph N/A   Scattered Clouds
1:55 PM 52.9 °F - 35.6 °F 52% 29.92 in 10.0 mi NNW 13.8 mph 20.7 mph N/A   Clear
2:15 PM 53.6 °F - 36.0 °F 51% 29.92 in 10.0 mi NNW 15.0 mph 23.0 mph N/A   Clear
2:35 PM 54.1 °F - 35.1 °F 49% 29.91 in 10.0 mi NNW 16.1 mph 24.2 mph N/A   Clear
2:55 PM 54.7 °F - 34.5 °F 47% 29.91 in 10.0 mi NNW 15.0 mph 18.4 mph N/A   Clear
3:15 PM 55.6 °F - 35.6 °F 47% 29.91 in 10.0 mi NNW 16.1 mph 23.0 mph N/A   Clear
3:35 PM 55.8 °F - 34.9 °F 45% 29.92 in 10.0 mi NW 18.4 mph 23.0 mph N/A   Clear
3:55 PM 55.8 °F - 34.5 °F 45% 29.93 in 10.0 mi NNW 15.0 mph 24.2 mph N/A   Clear
4:15 PM 56.5 °F - 34.9 °F 44% 29.93 in 10.0 mi NNW 13.8 mph 17.3 mph N/A   Clear
4:35 PM 55.8 °F - 33.8 °F 44% 29.93 in 10.0 mi NW 17.3 mph 27.6 mph N/A   Clear
4:55 PM 56.7 °F - 32.5 °F 40% 29.94 in 10.0 mi NNW 12.7 mph 18.4 mph N/A   Clear
5:15 PM 56.7 °F - 34.0 °F 42% 29.94 in 10.0 mi NNW 11.5 mph 21.9 mph N/A   Clear
5:35 PM 56.3 °F - 33.1 °F 41% 29.95 in 10.0 mi NNW 15.0 mph 20.7 mph N/A   Clear
5:55 PM 55.6 °F - 32.9 °F 42% 29.96 in 10.0 mi NNW 11.5 mph 21.9 mph N/A   Clear
6:15 PM 55.4 °F - 32.2 °F 41% 29.96 in 10.0 mi NNW 11.5 mph - N/A   Clear
6:35 PM 55.2 °F - 32.4 °F 42% 29.98 in 10.0 mi NNW 12.7 mph 19.6 mph N/A   Clear
6:55 PM 55.2 °F - 32.2 °F 42% 29.99 in 10.0 mi NNW 12.7 mph 18.4 mph N/A   Clear
7:15 PM 54.3 °F - 32.0 °F 43% 29.99 in 10.0 mi NNW 11.5 mph - N/A   Clear
7:35 PM 53.8 °F - 32.0 °F 44% 30.00 in 10.0 mi North 9.2 mph - N/A   Clear
7:55 PM 53.8 °F - 32.0 °F 44% 30.01 in 10.0 mi North 11.5 mph 16.1 mph N/A   Clear
8:15 PM 53.1 °F - 32.0 °F 45% 30.02 in 10.0 mi NNW 9.2 mph 17.3 mph N/A   Clear
8:35 PM 52.7 °F - 32.0 °F 45% 30.02 in 10.0 mi NNW 12.7 mph 18.4 mph N/A   Clear
8:55 PM 52.2 °F - 32.0 °F 46% 30.03 in 10.0 mi NNW 11.5 mph 19.6 mph N/A   Clear
9:15 PM 51.8 °F - 32.0 °F 47% 30.03 in 10.0 mi NNW 6.9 mph - N/A   Clear
9:35 PM 51.1 °F - 32.0 °F 48% 30.03 in 10.0 mi North 11.5 mph 16.1 mph N/A   Clear
9:55 PM 50.4 °F - 32.0 °F 49% 30.04 in 10.0 mi North 6.9 mph - N/A   Clear
10:15 PM 49.1 °F - 32.0 °F 52% 30.05 in 10.0 mi NNE 9.2 mph 17.3 mph N/A   Clear
10:35 PM 47.1 °F - 31.6 °F 55% 30.07 in 10.0 mi NNE 12.7 mph 17.3 mph N/A   Clear
10:55 PM 45.9 °F 41.2 °F 31.3 °F 57% 30.08 in 10.0 mi NE 9.2 mph - N/A   Clear
11:15 PM 44.4 °F 39.0 °F 30.9 °F 59% 30.09 in 10.0 mi NE 10.4 mph - N/A   Clear
11:35 PM 43.7 °F 39.7 °F 30.0 °F 59% 30.10 in 10.0 mi NNE 6.9 mph - N/A   Clear
11:55 PM 42.8 °F 38.0 °F 29.7 °F 60% 30.11 in 10.0 mi ENE 8.1 mph - N/A   Clear